Weather in Zheltoyarovo

Russia / Amur Oblast     51°31′31″N   128°26′20″E
temp.,
°C
wind,
m/s
gust,
m/s
humid.,
%
clouds,
%
prec.,
mm/h
press.,
hPa
HPBL,
m
12 april, mon
mon1200:00−1ne5649100 0.0 1025968
03:00−3ne5758100 0.0 1025661
06:00−4ne5736100 0.0 1023702
09:00−4nne7927100 0.1 1022926
12:00−2nne81023100 0.1 10191190
15:00−2n71029100 0.5 10181384
18:00−2n71134100 0.0 10161508
21:00−4n611437 0.0 1017960
13 april, tue
tue1300:00−6nnw511484 0.0 1016743
03:00−7nnw511595 0.0 1014614
06:00−7nw5106076 0.0 1013520
09:00−4nnw69435 0.0 10111114
12:00−1nnw7926100 0.0 10092411
15:000nnw7925100 0.0 10082791
18:00−1nnw783182 0.0 10082255
21:00−4nnw5104118 0.0 1009475
14 april, wed
wed1400:00−4nnw5104757 0.0 1007586
03:00−5nnw486310 0.0 1007413
06:00−6nnw256781 0.0 1008241
09:00−3nw354972 0.0 10081147
12:00+1nnw4628100 0.0 10082282
15:00+3nnw4623100 0.0 10072510
18:00+2n352412 0.0 10082021
21:00−2ne11335 0.0 101010
15 april, thu
thu1500:00−3wsw113660 0.0 101110
03:00−4sw11405 0.0 101110
06:00−4se11401 0.0 101110
09:00+2ese3429100 0.0 1011605
12:00+5se4431100 0.0 10101580
15:00+5ese5633100 0.0 10071545
18:00+3se61057100 0.3 10081112
21:00+1e81590100 1.8 1005909
16 april, fri
fri1600:000e81595100 0.8 1001927
03:000ese61495100 2.5 999823
06:000se71696100 3.3 998664
09:00+3se71490100 3.4 999656
12:00+6sse6971100 0.1 10001316
15:00+6se6768100 0.7 10001067
18:00+5se5777100 0.1 1002576
21:00+3ese3787100 0.2 1004280